THORAD AGENA D DEB, 4650

Orbit data source: Space-Track

THORAD AGENA D DEB, 4650 is space debris in SSO originally from a launch on Wed, 08 Apr 1970 UTC launched from the Air Force Western Test Range (AFWTR). Debris objects in space refer to the collection of defunct objects orbiting the Earth. Examples of debris include non-operational satellites, rocket bodies, and fragments generated from explosions, collisions, or faulty payload assembly.

Loading next visibility...
Identifier
4650, 1970-025AJ
Orbit
SSO
Last TLE update
1 day ago
Origin
Manufacturer
Unknown
Mission
Spacecraft
Bus & Motor
Unknown
Mass
Unknown
Launch date (UTC)
1970-04-08 (55 years ago)
Launch vehicle
Unknown
Launch site
Air Force Western Test Range (AFWTR)
Object type
Payload
Rocket body
Debris
Shape & HBR
Unknown
Radar Cross Section
Small (<0.1 m²)

Expand to show TLE details & history

TLE from 1 day ago
0 THORAD AGENA D DEB
1 04650U 70025AJ  25128.17833897  .00001488  00000-0  81803-3 0  9997
2 04650  99.8284 213.0041 0116784 122.0463 239.2111 14.10046579800591
Epoch: 2025-05-08T04:16Z
Definitive object data (Epoch: 2025-05-08T04:16:48.487Z)
Latitude
0.00006°
Longitude
-77.4505°
Altitude
906.071 km
Speed
7.376 km/s
True Right ascension
14h 12m 00s
True Declination
0° 00' 00"
Sunlit
Object was in full shadow at TLE epoch
Visualization TLE readout
Latitude
43.93536°
Longitude
-85.83653°
Altitude
842.109 km
Speed
7.448 km/s
Apparent Right ascension
09h 27m 43s
Apparent Declination
49° 38' 34"
Sunlit
Object is in daylight
Visualization observer readout
Local Sidereal Time
14:10:57
Azimuth
306.216° NW
Elevation
40.71°
Doppler factor
1
Orbital elements
Apogee altitude
940.929 km
Perigee altitude
771.952 km
Semi-major axis
7,234.577 km
Eccentricity
0.0116784
Inclination
99.8284°
RAAN
213.0041°
Arg. of periapsis
122.0463°
True anomaly
238.07007°
Mean anomaly
239.2111°
Eccentric anomaly
238.63973°
Mean motion
3.52715 °/min
BSTAR
0.00081803
Orbital period
102.07 mins
Loading maneuver chart data...
Loading SW <> Apogee altitude chart data...

THORAD AGENA D DEB Visibility forecast

Observer location: undefined°, undefined°

Span
Click to sort rows by Start time (UTC) header in descending order
Start Az.
Max El. time (UTC)
Max El. Az.
Max El.
End time (UTC)
End Az.
8 mins2025-05-09 18:20:10.953Z25.222° NE2025-05-09 18:24:10.953Z111.997° ESE41.387°2025-05-09 18:28:10.953Z181.689° SSW
4 mins2025-05-09 20:03:10.953Z314.966° NW2025-05-09 20:04:10.953Z301.159° NW15.607°2025-05-09 20:07:10.953Z263.942° W
5 mins2025-05-10 04:09:10.953Z85.209° E2025-05-10 04:11:10.953Z59.321° ENE16.425°2025-05-10 04:14:10.953Z23.55° NE
9 mins2025-05-10 05:47:10.953Z177.51° S2025-05-10 05:51:10.953Z247.246° WSW42.149°2025-05-10 05:56:10.953Z337.968° N
|